Time,TemperatureF,DewpointF,PressureIn,WindDirection,WindDirectionDegrees,WindSpeedMPH,WindSpeedGustMPH,Humidity,HourlyPrecipIn,Conditions,Clouds,dailyrainin,SoftwareType,DateUTC
2013-05-02 00:15:00,62.7,60.0,30.07,East,84,5.0,14.0,91,0.01,,,0.00,weatherlink.com 1.10,2013-05-02 04:15:00,
2013-05-02 00:31:00,62.5,60.0,30.06,NE,55,6.0,12.0,91,0.00,,,0.00,weatherlink.com 1.10,2013-05-02 04:31:00,
2013-05-02 00:45:00,62.3,60.0,30.06,ENE,70,7.0,11.0,91,0.00,,,0.00,weatherlink.com 1.10,2013-05-02 04:45:00,
2013-05-02 01:02:00,62.0,59.0,30.06,ENE,60,11.0,11.0,91,0.00,,,0.00,weatherlink.com 1.10,2013-05-02 05:02:00,
2013-05-02 01:15:00,61.9,60.0,30.06,ENE,66,11.0,12.0,92,0.00,,,0.00,weatherlink.com 1.10,2013-05-02 05:15:00,
2013-05-02 01:31:00,61.8,60.0,30.06,ENE,60,11.0,13.0,92,0.00,,,0.00,weatherlink.com 1.10,2013-05-02 05:31:00,
2013-05-02 01:45:00,61.7,59.0,30.06,NE,54,9.0,12.0,92,0.00,,,0.00,weatherlink.com 1.10,2013-05-02 05:45:00,
2013-05-02 02:02:00,61.7,59.0,30.05,East,91,9.0,16.0,92,0.00,,,0.00,weatherlink.com 1.10,2013-05-02 06:02:00,
2013-05-02 02:16:00,61.7,60.0,30.05,ENE,71,8.0,12.0,93,0.00,,,0.00,weatherlink.com 1.10,2013-05-02 06:16:00,
2013-05-02 02:31:00,61.7,60.0,30.05,ENE,62,10.0,12.0,93,0.00,,,0.00,weatherlink.com 1.10,2013-05-02 06:31:00,
2013-05-02 02:46:00,61.8,60.0,30.05,ENE,60,8.0,13.0,93,0.00,,,0.00,weatherlink.com 1.10,2013-05-02 06:46:00,
2013-05-02 03:02:00,61.7,60.0,30.05,ENE,60,8.0,14.0,93,0.00,,,0.00,weatherlink.com 1.10,2013-05-02 07:02:00,
2013-05-02 03:16:00,61.7,60.0,30.05,ENE,65,13.0,14.0,94,0.00,,,0.00,weatherlink.com 1.10,2013-05-02 07:16:00,
2013-05-02 03:32:00,61.8,60.0,30.04,NE,40,7.0,13.0,93,0.00,,,0.00,weatherlink.com 1.10,2013-05-02 07:32:00,
2013-05-02 03:46:00,61.7,60.0,30.04,NE,44,9.0,13.0,93,0.00,,,0.00,weatherlink.com 1.10,2013-05-02 07:46:00,
2013-05-02 04:02:00,61.8,60.0,30.04,ENE,66,10.0,17.0,92,0.00,,,0.00,weatherlink.com 1.10,2013-05-02 08:02:00,
2013-05-02 04:17:00,61.9,60.0,30.04,ENE,64,13.0,14.0,92,0.00,,,0.00,weatherlink.com 1.10,2013-05-02 08:17:00,
2013-05-02 04:32:00,61.9,60.0,30.04,ENE,66,7.0,11.0,92,0.00,,,0.00,weatherlink.com 1.10,2013-05-02 08:32:00,
2013-05-02 04:47:00,61.8,60.0,30.04,NE,34,10.0,16.0,92,0.00,,,0.00,weatherlink.com 1.10,2013-05-02 08:47:00,
2013-05-02 05:03:00,61.7,59.0,30.04,ENE,63,4.0,13.0,92,0.00,,,0.00,weatherlink.com 1.10,2013-05-02 09:03:00,
2013-05-02 05:17:00,61.8,60.0,30.05,NE,38,7.0,11.0,92,0.00,,,0.00,weatherlink.com 1.10,2013-05-02 09:17:00,
2013-05-02 05:33:00,61.8,60.0,30.04,ENE,60,11.0,12.0,92,0.00,,,0.00,weatherlink.com 1.10,2013-05-02 09:33:00,
2013-05-02 05:48:00,61.7,59.0,30.05,ENE,60,8.0,12.0,92,0.00,,,0.00,weatherlink.com 1.10,2013-05-02 09:48:00,
2013-05-02 06:03:00,61.2,59.0,30.05,NE,52,6.0,16.0,92,0.00,,,0.00,weatherlink.com 1.10,2013-05-02 10:03:00,
2013-05-02 06:18:00,-999.0,-99.9,30.05,North,-999,-999.0,-999.0,-999,0.00,,,0.00,weatherlink.com 1.10,2013-05-02 10:18:00,
2013-05-02 06:33:00,-999.0,-99.9,30.06,North,-999,-999.0,-999.0,-999,0.00,,,0.00,weatherlink.com 1.10,2013-05-02 10:33:00,
2013-05-02 06:48:00,-999.0,-99.9,30.06,North,-999,-999.0,-999.0,-999,0.00,,,0.00,weatherlink.com 1.10,2013-05-02 10:48:00,
2013-05-02 07:04:00,-999.0,-99.9,30.06,North,-999,-999.0,-999.0,-999,0.00,,,0.00,weatherlink.com 1.10,2013-05-02 11:04:00,
2013-05-02 07:18:00,60.7,59.0,30.06,East,89,10.0,14.0,95,0.00,,,0.00,weatherlink.com 1.10,2013-05-02 11:18:00,
2013-05-02 07:34:00,60.8,59.0,30.07,ENE,77,7.0,10.0,95,0.01,,,0.01,weatherlink.com 1.10,2013-05-02 11:34:00,
2013-05-02 07:49:00,60.8,59.0,30.07,ENE,65,10.0,12.0,95,0.01,,,0.01,weatherlink.com 1.10,2013-05-02 11:49:00,
2013-05-02 08:04:00,61.1,60.0,30.07,NE,56,6.0,13.0,95,0.01,,,0.01,weatherlink.com 1.10,2013-05-02 12:04:00,
2013-05-02 08:19:00,61.2,60.0,30.07,ENE,58,8.0,11.0,95,0.01,,,0.01,weatherlink.com 1.10,2013-05-02 12:19:00,
2013-05-02 08:34:00,61.5,60.0,30.07,ESE,106,5.0,14.0,94,0.00,,,0.01,weatherlink.com 1.10,2013-05-02 12:34:00,
2013-05-02 08:49:00,61.5,60.0,30.08,East,79,4.0,14.0,94,0.00,,,0.01,weatherlink.com 1.10,2013-05-02 12:49:00,
2013-05-02 09:05:00,61.6,60.0,30.08,ENE,68,14.0,14.0,93,0.00,,,0.01,weatherlink.com 1.10,2013-05-02 13:05:00,
2013-05-02 09:21:00,61.5,60.0,30.09,ENE,77,11.0,16.0,93,0.00,,,0.01,weatherlink.com 1.10,2013-05-02 13:21:00,
2013-05-02 09:35:00,61.5,60.0,30.09,NE,56,6.0,14.0,93,0.00,,,0.01,weatherlink.com 1.10,2013-05-02 13:35:00,
2013-05-02 09:51:00,61.6,60.0,30.09,ENE,68,7.0,13.0,93,0.00,,,0.01,weatherlink.com 1.10,2013-05-02 13:51:00,
2013-05-02 10:06:00,61.5,60.0,30.09,ENE,61,11.0,14.0,93,0.00,,,0.01,weatherlink.com 1.10,2013-05-02 14:06:00,
2013-05-02 10:21:00,61.6,60.0,30.09,ENE,68,15.0,15.0,94,0.01,,,0.02,weatherlink.com 1.10,2013-05-02 14:21:00,
2013-05-02 10:35:00,61.6,60.0,30.10,ENE,61,11.0,15.0,94,0.01,,,0.02,weatherlink.com 1.10,2013-05-02 14:35:00,
2013-05-02 10:51:00,61.7,60.0,30.10,ENE,65,10.0,13.0,94,0.01,,,0.02,weatherlink.com 1.10,2013-05-02 14:51:00,
2013-05-02 11:06:00,61.7,60.0,30.10,ENE,64,9.0,12.0,94,0.02,,,0.03,weatherlink.com 1.10,2013-05-02 15:06:00,
2013-05-02 11:21:00,61.6,60.0,30.10,NE,55,8.0,14.0,94,0.02,,,0.04,weatherlink.com 1.10,2013-05-02 15:21:00,
2013-05-02 11:36:00,61.6,60.0,30.10,ENE,73,11.0,14.0,95,0.04,,,0.06,weatherlink.com 1.10,2013-05-02 15:36:00,
2013-05-02 11:51:00,62.0,60.0,30.10,ENE,66,8.0,13.0,94,0.04,,,0.06,weatherlink.com 1.10,2013-05-02 15:51:00,
2013-05-02 12:07:00,62.9,61.0,30.09,ENE,70,5.0,14.0,94,0.03,,,0.06,weatherlink.com 1.10,2013-05-02 16:07:00,
2013-05-02 12:21:00,64.9,62.0,30.09,ENE,77,9.0,13.0,89,0.02,,,0.06,weatherlink.com 1.10,2013-05-02 16:21:00,
2013-05-02 12:36:00,66.5,61.0,30.08,ENE,65,14.0,20.0,81,0.00,,,0.06,weatherlink.com 1.10,2013-05-02 16:36:00,
2013-05-02 12:52:00,66.9,58.0,30.08,ENE,78,17.0,20.0,74,0.00,,,0.06,weatherlink.com 1.10,2013-05-02 16:52:00,
2013-05-02 13:07:00,67.1,59.0,30.08,ESE,104,12.0,17.0,74,0.00,,,0.06,weatherlink.com 1.10,2013-05-02 17:07:00,
2013-05-02 13:22:00,66.6,58.0,30.08,East,90,15.0,20.0,73,0.00,,,0.06,weatherlink.com 1.10,2013-05-02 17:22:00,
2013-05-02 13:37:00,66.8,57.0,30.08,ENE,61,13.0,19.0,72,0.00,,,0.06,weatherlink.com 1.10,2013-05-02 17:37:00,
2013-05-02 13:52:00,67.1,57.0,30.08,East,84,16.0,19.0,69,0.00,,,0.06,weatherlink.com 1.10,2013-05-02 17:52:00,
2013-05-02 14:08:00,67.6,57.0,30.07,East,81,17.0,21.0,69,0.00,,,0.06,weatherlink.com 1.10,2013-05-02 18:08:00,
2013-05-02 14:23:00,68.2,58.0,30.07,ESE,105,6.0,22.0,69,0.00,,,0.06,weatherlink.com 1.10,2013-05-02 18:23:00,
2013-05-02 14:38:00,68.1,58.0,30.07,ENE,73,6.0,18.0,69,0.00,,,0.06,weatherlink.com 1.10,2013-05-02 18:38:00,
2013-05-02 14:53:00,68.3,58.0,30.07,ENE,74,14.0,20.0,69,0.00,,,0.06,weatherlink.com 1.10,2013-05-02 18:53:00,
2013-05-02 15:08:00,69.3,57.0,30.06,ENE,72,12.0,21.0,66,0.00,,,0.06,weatherlink.com 1.10,2013-05-02 19:08:00,
2013-05-02 15:23:00,68.8,58.0,30.06,SE,139,6.0,18.0,69,0.00,,,0.06,weatherlink.com 1.10,2013-05-02 19:23:00,
2013-05-02 15:38:00,68.2,58.0,30.06,ENE,60,16.0,17.0,69,0.00,,,0.06,weatherlink.com 1.10,2013-05-02 19:38:00,
2013-05-02 15:53:00,68.0,57.0,30.05,East,81,14.0,22.0,69,0.00,,,0.06,weatherlink.com 1.10,2013-05-02 19:53:00,
2013-05-02 16:09:00,68.3,59.0,30.05,NNE,26,8.0,17.0,71,0.00,,,0.06,weatherlink.com 1.10,2013-05-02 20:09:00,
2013-05-02 16:24:00,68.2,58.0,30.05,East,84,13.0,18.0,71,0.00,,,0.06,weatherlink.com 1.10,2013-05-02 20:24:00,
2013-05-02 16:39:00,68.0,59.0,30.04,East,90,6.0,16.0,74,0.00,,,0.06,weatherlink.com 1.10,2013-05-02 20:39:00,
2013-05-02 16:54:00,67.9,59.0,30.04,East,79,6.0,15.0,74,0.00,,,0.06,weatherlink.com 1.10,2013-05-02 20:54:00,
2013-05-02 17:09:00,67.9,59.0,30.04,ENE,73,17.0,19.0,73,0.00,,,0.06,weatherlink.com 1.10,2013-05-02 21:09:00,
2013-05-02 17:24:00,67.3,59.0,30.03,East,89,16.0,18.0,74,0.00,,,0.06,weatherlink.com 1.10,2013-05-02 21:24:00,
2013-05-02 17:39:00,66.5,59.0,30.03,ENE,73,9.0,12.0,77,0.00,,,0.06,weatherlink.com 1.10,2013-05-02 21:39:00,
2013-05-02 17:54:00,66.6,58.0,30.03,East,91,16.0,19.0,75,0.00,,,0.06,weatherlink.com 1.10,2013-05-02 21:54:00,
2013-05-02 18:11:00,65.8,58.0,30.03,East,82,16.0,24.0,76,0.00,,,0.06,weatherlink.com 1.10,2013-05-02 22:11:00,
2013-05-02 18:24:00,65.4,58.0,30.03,ENE,71,14.0,24.0,77,0.00,,,0.06,weatherlink.com 1.10,2013-05-02 22:24:00,
2013-05-02 18:41:00,65.8,58.0,30.02,ENE,76,17.0,17.0,77,0.00,,,0.06,weatherlink.com 1.10,2013-05-02 22:41:00,
2013-05-02 18:55:00,65.4,58.0,30.02,East,86,15.0,24.0,78,0.00,,,0.06,weatherlink.com 1.10,2013-05-02 22:55:00,
2013-05-02 19:10:00,65.1,58.0,30.02,ENE,71,15.0,17.0,79,0.00,,,0.06,weatherlink.com 1.10,2013-05-02 23:10:00,
2013-05-02 19:25:00,64.5,59.0,30.02,East,91,8.0,15.0,81,0.00,,,0.06,weatherlink.com 1.10,2013-05-02 23:25:00,
2013-05-02 19:41:00,64.1,59.0,30.02,ENE,63,16.0,16.0,82,0.00,,,0.06,weatherlink.com 1.10,2013-05-02 23:41:00,
2013-05-02 19:55:00,64.0,58.0,30.02,ENE,75,8.0,13.0,80,0.00,,,0.06,weatherlink.com 1.10,2013-05-02 23:55:00,
2013-05-02 20:11:00,63.9,57.0,30.03,East,82,7.0,13.0,79,0.00,,,0.06,weatherlink.com 1.10,2013-05-03 00:11:00,
2013-05-02 20:26:00,63.8,57.0,30.04,East,89,11.0,14.0,79,0.00,,,0.06,weatherlink.com 1.10,2013-05-03 00:26:00,
2013-05-02 20:41:00,63.7,57.0,30.04,East,91,2.0,14.0,80,0.00,,,0.06,weatherlink.com 1.10,2013-05-03 00:41:00,
2013-05-02 20:56:00,63.2,57.0,30.05,ENE,61,8.0,13.0,79,0.00,,,0.06,weatherlink.com 1.10,2013-05-03 00:56:00,
2013-05-02 21:11:00,62.9,56.0,30.05,East,88,16.0,16.0,78,0.00,,,0.06,weatherlink.com 1.10,2013-05-03 01:11:00,
2013-05-02 21:26:00,62.6,56.0,30.05,ENE,70,11.0,13.0,80,0.00,,,0.06,weatherlink.com 1.10,2013-05-03 01:26:00,
2013-05-02 21:41:00,62.1,56.0,30.06,ENE,62,10.0,13.0,81,0.00,,,0.06,weatherlink.com 1.10,2013-05-03 01:41:00,
2013-05-02 21:56:00,61.6,56.0,30.05,ENE,72,8.0,11.0,82,0.00,,,0.06,weatherlink.com 1.10,2013-05-03 01:56:00,
2013-05-02 22:11:00,61.2,56.0,30.04,ENE,65,11.0,15.0,82,0.00,,,0.06,weatherlink.com 1.10,2013-05-03 02:11:00,
2013-05-02 22:26:00,60.9,56.0,30.04,NE,49,12.0,15.0,83,0.00,,,0.06,weatherlink.com 1.10,2013-05-03 02:26:00,
2013-05-02 22:42:00,60.4,56.0,30.04,NE,51,6.0,11.0,84,0.00,,,0.06,weatherlink.com 1.10,2013-05-03 02:42:00,
2013-05-02 22:57:00,59.9,55.0,30.03,ENE,67,8.0,12.0,85,0.00,,,0.06,weatherlink.com 1.10,2013-05-03 02:57:00,
2013-05-02 23:12:00,59.5,55.0,30.03,NE,54,7.0,12.0,86,0.00,,,0.06,weatherlink.com 1.10,2013-05-03 03:12:00,
2013-05-02 23:27:00,59.3,56.0,30.04,NE,56,6.0,12.0,87,0.00,,,0.06,weatherlink.com 1.10,2013-05-03 03:27:00,
2013-05-02 23:42:00,58.9,55.0,30.03,NE,52,7.0,12.0,88,0.00,,,0.06,weatherlink.com 1.10,2013-05-03 03:42:00,
2013-05-02 23:57:00,58.3,55.0,30.03,ENE,75,8.0,12.0,89,0.00,,,0.06,weatherlink.com 1.10,2013-05-03 03:57:00,